SCP
0 0 0 0 0 0 0 0 0 0 0 0 0 0 0 0 0 0 0 0 0 0 0 0 0 0 0 0 0 1 1 2 2 2 2 2 1 1 1 1 1 0 0 0
0 0 0 0 0 0 0 0 0 0 0 0 0 0 0 0 0 0 0 0 0 0 0 0 0 0 0 0 0 0 1 1 2 2 2 2 1 1 1 1 1 1 0 0
0 0 0 0 0 0 0 0 0 0 0 0 0 0 0 0 0 0 0 0 0 0 0 0 0 0 0 0 0 0 1 1 2 2 2 2 1 1 1 1 1 1 0 0
0 0 0 0 0 0 0 0 0 0 0 0 0 0 0 0 0 0 0 0 0 0 0 0 0 0 0 0 0 0 0 1 2 2 2 2 1 1 1 1 1 1 1 0
0 0 0 0 0 0 0 0 0 0 0 0 0 0 0 0 0 0 0 0 0 0 0 0 0 0 0 0 0 0 0 1 1 2 2 2 1 1 1 0 0 0 0 0
0 0 0 0 0 0 0 0 0 0 0 0 0 0 0 0 0 0 0 0 0 0 0 0 0 0 0 0 0 0 0 0 0 1 1 1 1 1 0 0 0 0 0 0
0 0 0 0 0 0 0 0 0 0 0 0 0 0 0 0 0 0 0 0 0 0 0 0 0 0 0 0 0 0 0 0 0 0 1 1 1 0 0 0 0 0 0 0
0 0 0 0 0 0 0 0 0 0 0 0 0 0 0 0 0 0 0 0 0 0 0 0 0 0 0 0 0 0 0 0 0 0 0 0 0 0 0 0 0 0 0 0
0 0 0 0 0 0 0 0 0 0 0 0 0 0 0 0 0 0 0 0 0 0 0 0 0 0 0 0 0 0 0 0 0 0 0 0 0 0 0 0 0 0 0 0
0 0 0 0 0 0 0 0 0 0 0 0 0 0 0 0 0 0 0 0 0 0 0 0 0 0 0 0 0 0 0 0 0 0 0 0 0 0 0 0 0 0 0 0
0 0 0 0 0 0 0 0 0 0 0 0 0 0 0 0 0 0 0 0 0 0 0 0 0 0 0 0 0 0 0 0 0 0 0 0 0 0 0 0 0 0 0 0
0 0 0 0 0 0 0 0 0 0 0 0 0 0 0 0 0 0 0 0 0 0 0 0 0 0 0 0 0 0 0 0 0 0 0 0 0 0 0 0 0 0 0 0
0 0 0 0 0 0 0 0 0 0 0 0 0 0 0 0 0 0 0 0 0 0 0 0 0 0 0 0 0 0 0 0 0 0 0 0 0 0 0 0 0 0 0 0
0 0 0 0 0 0 0 0 0 0 0 0 0 0 0 0 0 0 0 0 0 0 0 0 0 0 0 0 0 0 0 0 0 0 0 0 0 0 0 0 0 0 0 0
0 0 0 0 0 0 0 0 0 0 0 0 0 0 0 0 0 0 0 0 0 0 0 0 0 0 0 0 0 0 0 0 0 0 0 0 0 0 0 0 0 0 0 0
0 0 0 0 0 0 0 0 0 0 0 0 0 0 0 0 0 0 0 0 0 0 0 0 0 0 0 0 0 0 0 0 0 0 0 0 0 0 0 0 0 0 0 0
0 0 0 0 0 0 0 0 0 0 0 0 0 0 0 0 0 0 0 0 0 0 0 0 0 0 0 0 0 0 0 0 0 0 0 0 0 0 0 0 0 0 0 0
0 0 0 0 0 0 0 0 0 0 0 0 0 0 0 0 0 0 0 0 0 0 0 0 0 0 0 0 0 0 0 0 0 0 0 0 0 0 0 0 0 0 0 0
0 0 0 0 0 0 0 0 0 0 0 0 0 0 0 0 0 0 0 0 0 0 0 0 0 0 0 0 0 0 0 0 -0 0 0 0 0 0 0 0 0 0 0 0
0 0 0 0 0 0 0 0 0 0 0 0 0 0 0 0 0 0 0 0 0 0 0 0 0 0 0 0 0 0 0 0 0 0 0 0 0 0 0 0 0 0 0 0
0 0 0 0 0 0 0 0 0 0 0 0 0 0 0 0 0 0 0 0 0 0 0 0 0 0 0 0 0 0 0 0 0 0 0 0 0 0 0 0 0 0 0 0
0 0 0 0 0 0 0 0 0 0 0 0 0 0 0 0 0 0 0 0 0 0 0 0 0 0 0 0 0 0 0 0 0 0 0 0 0 0 0 0 0 0 0 0
0 0 0 0 0 0 0 0 0 0 0 0 0 0 0 0 0 0 0 0 0 0 0 0 0 0 0 0 0 0 0 0 0 0 0 0 0 0 0 0 0 0 0 0
0 0 0 0 0 0 0 0 0 0 0 0 0 0 0 0 0 0 0 0 0 0 0 0 0 0 0 0 0 0 0 0 0 0 0 0 0 0 0 0 0 0 0 0
0 0 0 0 0 0 0 0 0 0 0 0 0 0 0 0 0 0 0 0 0 0 0 0 0 0 0 0 0 0 0 0 0 0 0 0 0 0 0 0 0 0 0 0
0 0 0 0 0 0 0 0 0 0 0 0 0 0 0 0 0 0 0 0 0 0 0 0 0 0 0 0 0 0 0 0 0 0 0 0 0 0 0 0 0 0 0 0
Wind_Speed
3 5 6 10 9 6 7 5 3 3 3 5 7 9 11 9 6 9 10 10 11 13 11 7 8 9 9 9 11 13 14 13 11 9 10 10 10 9 9 9 11 13 12 13
4 4 8 6 5 3 3 3 2 2 1 3 5 10 11 10 10 11 12 12 13 11 8 6 6 6 7 9 11 11 13 13 12 11 9 7 6 6 7 7 9 12 13 13
9 7 6 6 5 6 5 6 5 4 1 2 3 9 7 8 6 8 10 11 10 10 9 6 4 4 4 6 8 9 11 11 12 9 5 4 3 3 5 7 8 10 12 13
7 4 5 6 7 8 6 5 5 4 1 4 1 7 7 7 7 8 10 9 9 6 4 3 2 1 2 4 4 5 6 7 8 9 8 9 8 9 8 6 7 8 10 12
8 6 7 8 8 9 6 2 4 2 2 2 1 4 10 5 7 11 11 9 5 3 3 2 1 1 1 1 2 2 3 4 5 7 9 10 9 7 4 4 7 8 8 10
4 3 7 8 4 7 8 8 7 6 4 4 6 6 10 6 9 8 7 4 1 3 4 3 3 4 4 4 3 3 3 2 2 4 6 7 8 7 6 6 7 7 6 7
3 2 1 4 7 3 6 8 3 2 2 8 4 6 12 9 8 7 6 2 2 3 3 3 3 3 3 3 3 3 3 1 1 2 3 5 6 7 8 8 8 7 6 6
10 7 8 6 9 10 8 11 10 9 7 6 3 10 10 6 4 3 2 2 3 3 3 2 2 2 1 2 2 2 1 1 1 1 2 2 3 3 4 6 5 7 6 7
12 9 4 6 5 14 9 7 7 7 3 2 8 8 9 3 1 0 3 4 3 3 2 2 1 1 1 1 1 0 0 0 0 1 1 1 2 3 4 4 4 4 4 4
9 7 3 2 3 0 8 10 6 7 7 7 8 7 7 5 5 3 3 3 3 2 2 1 1 1 1 1 1 1 0 1 1 2 2 2 2 2 3 3 4 4 5 5
7 7 3 4 10 12 8 7 7 7 7 8 6 9 7 8 7 6 4 4 4 3 2 1 1 1 1 2 2 2 2 2 2 2 2 2 2 2 2 3 4 4 5 6
7 7 5 7 4 4 7 10 11 9 8 6 5 9 2 5 4 5 4 3 2 2 1 1 2 2 2 3 3 2 3 3 3 2 2 3 3 3 3 4 4 4 5 5
9 8 5 1 3 3 5 5 7 5 6 7 8 7 1 3 3 3 4 3 3 3 3 3 2 2 2 3 3 3 3 3 3 3 3 3 3 4 4 4 4 4 5 5
6 6 9 14 8 9 7 7 8 8 8 9 11 7 5 4 3 2 2 3 4 3 2 2 2 2 3 3 3 4 4 3 3 3 3 4 4 5 5 4 4 5 5 5
5 6 4 2 3 5 7 9 11 12 11 11 9 10 10 7 5 3 3 4 4 4 3 3 3 2 3 4 4 4 4 4 3 3 3 4 4 4 4 4 4 5 5 6
5 5 5 4 4 4 6 10 13 13 10 10 7 10 6 6 4 3 3 4 5 4 3 2 2 3 3 4 4 5 5 5 4 4 4 4 4 4 4 4 4 5 5 5
6 6 6 5 4 2 11 14 14 10 9 10 14 11 5 5 5 4 4 4 5 4 2 1 1 2 2 3 3 5 6 6 4 4 5 4 4 4 5 4 4 5 5 5
8 6 4 4 6 11 10 6 11 12 12 12 9 6 8 7 5 4 4 5 4 3 2 1 1 2 2 3 4 4 5 4 4 4 5 4 4 5 5 4 5 5 4 5
6 8 5 5 5 8 8 5 9 10 11 10 11 7 6 8 6 2 2 3 3 2 1 1 1 2 3 3 4 5 5 4 4 5 5 5 5 5 5 5 5 4 4 5
5 6 6 6 6 10 9 4 4 6 8 5 8 8 9 10 6 4 3 2 2 1 0 1 1 2 3 4 4 4 4 4 5 6 6 6 5 5 6 6 5 4 4 5
9 7 9 7 7 10 8 3 7 9 10 4 6 7 7 6 4 4 3 1 1 0 1 1 1 2 3 3 3 4 5 5 6 6 6 6 5 5 5 5 4 3 3 3
12 9 9 7 8 12 5 7 10 6 4 6 6 6 6 5 4 3 2 0 1 2 2 2 2 3 3 3 3 4 5 5 6 6 6 6 5 4 3 4 3 3 3 3
9 10 8 10 9 3 4 5 4 7 8 6 6 5 6 5 3 2 1 2 2 3 3 2 3 4 3 2 2 4 5 6 6 6 7 6 6 4 3 3 3 3 2 3
4 2 4 3 4 2 2 4 4 6 7 6 6 6 5 4 4 3 2 2 3 3 3 2 3 4 4 3 3 4 6 6 5 7 7 6 5 5 4 3 3 3 3 4
7 7 5 5 3 3 1 3 5 5 6 6 4 4 4 4 3 2 2 3 3 3 3 3 3 5 5 4 4 4 5 5 5 6 6 5 5 5 4 4 4 4 4 5
6 8 9 8 8 7 7 6 6 6 5 5 4 3 1 2 2 2 2 2 2 3 3 3 4 5 5 5 5 4 4 4 5 6 6 5 4 4 4 4 4 6 7 8
Wind_Direction
113 105 178 195 189 176 165 164 200 246 204 169 222 254 268 279 277 263 257 251 248 247 250 250 236 224 214 207 201 199 196 194 185 185 190 193 199 197 197 196 193 190 186 182
89 220 211 192 187 176 178 189 224 292 47 184 251 265 266 263 250 242 245 249 247 250 263 260 249 224 208 205 203 200 198 193 190 194 193 192 187 192 196 193 195 192 188 184
173 217 185 165 175 188 209 197 204 215 7 346 305 295 281 275 253 259 253 248 249 240 245 250 246 235 213 208 204 201 199 194 193 186 169 153 154 165 188 198 199 196 190 188
206 222 154 166 188 164 213 206 180 174 142 280 313 289 280 272 287 278 270 260 252 248 233 230 240 261 230 223 201 193 189 188 186 178 178 180 191 201 203 195 196 192 192 191
217 194 171 185 197 168 186 144 141 137 160 282 279 255 278 285 270 264 263 263 253 223 170 143 104 82 40 54 103 137 145 162 173 181 190 195 205 208 189 181 189 192 194 193
208 208 189 189 160 157 129 75 57 49 68 268 213 206 271 232 223 243 256 262 191 124 113 101 75 65 53 51 62 79 106 120 152 180 192 202 206 198 187 191 196 196 194 196
196 239 215 137 103 107 122 104 64 330 304 250 221 221 251 241 240 234 238 223 139 115 108 95 77 60 50 50 52 64 93 106 124 167 193 207 210 202 203 200 201 197 195 200
173 220 209 188 158 163 179 156 168 191 218 260 241 232 252 259 276 268 233 138 109 107 107 107 100 86 69 61 63 67 84 104 119 172 210 217 210 207 212 207 202 204 205 205
181 213 206 201 177 149 161 195 164 139 147 253 254 265 296 285 289 18 106 99 113 121 120 124 105 80 68 51 48 76 96 322 244 215 215 229 218 212 215 209 206 207 205 195
157 189 213 193 100 277 157 148 127 154 177 231 258 245 233 215 208 187 150 135 136 125 118 99 65 35 15 1 349 358 311 252 251 235 225 226 226 222 214 201 204 204 201 190
157 159 165 164 188 178 150 166 168 165 174 181 243 256 224 199 189 175 175 164 156 157 144 94 28 16 5 357 354 339 314 291 277 261 252 248 244 231 220 218 215 206 201 195
169 147 179 219 241 205 187 181 164 175 210 197 216 259 259 171 166 147 148 147 134 127 101 71 44 26 11 357 345 330 311 295 282 270 259 254 250 238 230 230 225 211 208 205
154 148 144 271 244 207 213 208 192 165 158 189 205 251 268 126 118 127 131 126 110 98 86 72 61 41 12 351 341 332 318 305 300 284 268 265 259 248 241 237 229 217 212 211
147 159 190 202 193 171 189 199 188 172 199 218 219 204 200 184 163 157 134 124 110 98 88 70 48 23 5 355 347 337 326 319 309 288 268 263 258 251 247 239 229 223 216 214
135 185 200 197 149 158 182 195 199 207 212 215 223 204 204 201 195 189 153 127 110 98 77 59 46 23 10 4 355 345 336 336 323 300 281 273 273 264 257 249 240 231 224 222
149 175 172 202 190 185 219 216 208 217 224 232 239 243 223 211 202 193 168 140 126 115 99 66 36 16 4 356 344 337 334 332 328 313 298 297 293 278 264 255 246 237 232 225
160 153 169 203 161 149 241 217 206 210 207 201 228 231 188 203 205 195 165 142 138 138 125 89 24 358 350 343 335 331 323 322 325 314 307 304 293 281 271 261 249 242 237 229
155 151 158 156 154 220 238 194 193 205 217 211 219 201 184 185 153 115 128 138 141 139 120 62 344 331 329 330 333 324 320 324 323 317 312 310 302 288 281 268 255 249 239 232
159 155 156 169 206 262 282 226 179 187 231 219 216 204 159 133 106 105 125 131 137 138 144 240 290 302 318 329 328 324 327 330 326 317 312 309 301 292 285 272 263 254 244 240
164 154 160 169 191 228 243 219 173 142 246 223 191 185 164 149 166 196 166 129 113 97 155 283 306 314 318 317 320 325 322 321 316 311 306 302 295 285 279 273 269 260 246 246
176 184 195 192 213 249 245 213 129 174 231 173 153 149 148 160 165 146 140 126 115 342 289 301 306 304 301 308 321 318 314 310 308 307 302 299 293 284 279 279 273 265 256 254
179 186 195 184 210 241 202 154 182 194 127 123 121 125 126 129 126 134 143 212 320 317 305 302 298 295 298 308 318 308 304 308 313 310 306 301 298 292 286 279 279 268 251 253
198 190 182 192 214 239 177 182 164 134 133 138 135 137 134 138 155 170 200 253 282 287 289 293 289 293 300 308 307 296 304 317 316 309 303 301 301 295 284 269 270 272 254 254
238 157 152 204 243 214 141 121 125 129 135 143 143 145 148 160 181 205 231 255 274 283 285 287 289 290 296 314 314 297 308 315 307 297 295 294 292 292 286 270 251 249 250 252
194 167 172 206 196 126 184 170 152 132 123 127 131 144 160 174 205 225 250 267 275 286 294 288 280 285 294 312 314 314 317 318 302 291 287 287 280 278 279 268 253 248 242 235
189 175 175 201 190 174 189 183 160 148 154 160 160 163 167 180 223 259 270 290 304 305 311 308 303 298 301 306 305 314 325 319 303 297 293 288 285 281 275 276 281 262 256 258